When you browse on this site, cookies collect data to enhance your experience and personalize the content and advertising you see.
Visit our Privacy Policy to learn more. By continuing to use the site, you agree to this use of cookies and data.
  • In Schweiz
  • Länderverzeichnis
  • Für 7 Tage
  • Wassertemperatur
  • Wetterkarte
  • Widgets
  • user-avatar
    Anmelden

    Stündliche Wetter Can Tho

    Heute, 19 September, Donnerstag

    Zeit Temperatur Niederschläge Wind Luftdruck Luftfeuchtigkeit
    00:00 +26°C° 0 mm 2 m/S 757 mmHg 93%
    01:00 +26°C° 0 mm 1 m/S 757 mmHg 94%
    02:00 +26°C° 0.1 mm 1 m/S 757 mmHg 93%
    03:00 +26°C° 0.1 mm 1 m/S 757 mmHg 93%
    04:00 +26°C° 0.1 mm 1 m/S 756 mmHg 92%
    05:00 +26°C° 0.1 mm 1 m/S 757 mmHg 92%
    06:00 +27°C° 0.1 mm 1 m/S 757 mmHg 91%
    07:00 +27°C° 0 mm 2 m/S 758 mmHg 91%
    08:00 +27°C° 0.1 mm 2 m/S 758 mmHg 89%
    09:00 +28°C° 0.1 mm 2 m/S 758 mmHg 87%
    10:00 +28°C° 0.1 mm 3 m/S 758 mmHg 85%
    11:00 +29°C° 0.6 mm 3 m/S 758 mmHg 82%
    12:00 +30°C° 0.6 mm 3 m/S 757 mmHg 78%
    13:00 +32°C° 0.6 mm 4 m/S 757 mmHg 74%
    14:00 +32°C° 1.1 mm 4 m/S 756 mmHg 74%
    15:00 +32°C° 1.1 mm 4 m/S 756 mmHg 74%
    16:00 +31°C° 1.1 mm 3 m/S 756 mmHg 74%
    17:00 +30°C° 0.9 mm 3 m/S 756 mmHg 78%
    18:00 +29°C° 0.9 mm 2 m/S 756 mmHg 83%
    19:00 +28°C° 0.9 mm 1 m/S 757 mmHg 87%
    20:00 +28°C° 0.1 mm 1 m/S 757 mmHg 88%
    21:00 +27°C° 0.1 mm 1 m/S 758 mmHg 88%
    22:00 +27°C° 0.1 mm 1 m/S 758 mmHg 89%
    23:00 +27°C° 0 mm 1 m/S 758 mmHg 89%

    Morgen, 20 September, Freitag

    Zeit Temperatur Niederschläge Wind Luftdruck Luftfeuchtigkeit
    00:00 +27°C° 0 mm 1 m/S 757 mmHg 89%
    01:00 +27°C° 0 mm 1 m/S 757 mmHg 89%
    02:00 +26°C° 0 mm 1 m/S 757 mmHg 90%
    03:00 +26°C° 0 mm 1 m/S 756 mmHg 90%
    04:00 +26°C° 0 mm 1 m/S 756 mmHg 91%
    05:00 +27°C° 0 mm 1 m/S 757 mmHg 90%
    06:00 +27°C° 0 mm 1 m/S 757 mmHg 88%
    07:00 +27°C° 0 mm 1 m/S 757 mmHg 87%
    08:00 +29°C° 0 mm 2 m/S 757 mmHg 80%
    09:00 +31°C° 0 mm 3 m/S 758 mmHg 73%
    10:00 +33°C° 0 mm 3 m/S 758 mmHg 66%
    11:00 +34°C° 1.1 mm 4 m/S 757 mmHg 66%
    12:00 +34°C° 1.1 mm 4 m/S 756 mmHg 67%
    13:00 +34°C° 1.1 mm 4 m/S 756 mmHg 67%
    14:00 +34°C° 1.2 mm 4 m/S 755 mmHg 68%
    15:00 +33°C° 1.2 mm 4 m/S 755 mmHg 68%
    16:00 +33°C° 1.2 mm 4 m/S 755 mmHg 69%
    17:00 +31°C° 0.2 mm 3 m/S 755 mmHg 74%
    18:00 +30°C° 0.2 mm 3 m/S 755 mmHg 80%
    19:00 +29°C° 0.2 mm 2 m/S 756 mmHg 85%
    20:00 +28°C° 0 mm 2 m/S 756 mmHg 86%
    21:00 +28°C° 0 mm 2 m/S 757 mmHg 87%
    22:00 +28°C° 0 mm 2 m/S 757 mmHg 88%
    23:00 +28°C° 0.1 mm 1 m/S 757 mmHg 89%

    übermorgen, 21 September, Samstag

    Zeit Temperatur Niederschläge Wind Luftdruck Luftfeuchtigkeit
    00:00 +27°C° 0.1 mm 1 m/S 757 mmHg 89%
    01:00 +27°C° 0.1 mm 1 m/S 756 mmHg 89%
    02:00 +27°C° 0.1 mm 1 m/S 756 mmHg 90%
    03:00 +27°C° 0.1 mm 1 m/S 756 mmHg 90%
    04:00 +27°C° 0.1 mm 1 m/S 755 mmHg 90%
    05:00 +27°C° 0 mm 1 m/S 756 mmHg 89%
    06:00 +27°C° 0 mm 1 m/S 756 mmHg 88%
    07:00 +28°C° 0 mm 1 m/S 756 mmHg 87%
    08:00 +29°C° 0.4 mm 2 m/S 757 mmHg 80%
    09:00 +31°C° 0.4 mm 3 m/S 757 mmHg 74%
    10:00 +33°C° 0.4 mm 3 m/S 757 mmHg 67%
    11:00 +33°C° 1.8 mm 3 m/S 756 mmHg 68%
    12:00 +33°C° 1.8 mm 3 m/S 756 mmHg 70%
    13:00 +33°C° 1.8 mm 3 m/S 755 mmHg 71%
    14:00 +30°C° 3.7 mm 2 m/S 755 mmHg 77%
    15:00 +29°C° 3.7 mm 2 m/S 755 mmHg 84%
    16:00 +28°C° 3.7 mm 2 m/S 755 mmHg 90%
    17:00 +27°C° 0.4 mm 1 m/S 755 mmHg 91%
    18:00 +27°C° 0.4 mm 1 m/S 756 mmHg 91%
    19:00 +27°C° 0.4 mm 1 m/S 756 mmHg 92%
    20:00 +27°C° 0 mm 1 m/S 757 mmHg 92%
    21:00 +27°C° 0 mm 1 m/S 757 mmHg 92%
    22:00 +27°C° 0 mm 1 m/S 758 mmHg 92%
    23:00 +27°C° 0 mm 1 m/S 758 mmHg 92%

    22 September, Sonntag

    Zeit Temperatur Niederschläge Wind Luftdruck Luftfeuchtigkeit
    00:00 +27°C° 0 mm 1 m/S 758 mmHg 92%
    01:00 +27°C° 0 mm 1 m/S 757 mmHg 92%
    02:00 +26°C° 0.1 mm 1 m/S 757 mmHg 91%
    03:00 +26°C° 0.1 mm 1 m/S 757 mmHg 91%
    04:00 +26°C° 0.1 mm 1 m/S 756 mmHg 91%
    05:00 +26°C° 0 mm 2 m/S 757 mmHg 91%
    06:00 +27°C° 0 mm 2 m/S 757 mmHg 90%
    07:00 +27°C° 0 mm 2 m/S 758 mmHg 90%
    08:00 +28°C° 0.6 mm 2 m/S 758 mmHg 87%
    09:00 +29°C° 0.6 mm 2 m/S 758 mmHg 84%
    10:00 +29°C° 0.6 mm 2 m/S 758 mmHg 81%
    11:00 +29°C° 0.6 mm 2 m/S 758 mmHg 80%
    12:00 +29°C° 0.6 mm 2 m/S 757 mmHg 80%
    13:00 +30°C° 0.6 mm 2 m/S 757 mmHg 79%
    14:00 +29°C° 0.3 mm 1 m/S 757 mmHg 81%
    15:00 +29°C° 0.3 mm 1 m/S 757 mmHg 83%
    16:00 +28°C° 0.3 mm 1 m/S 757 mmHg 84%
    17:00 +28°C° 0 mm 1 m/S 757 mmHg 85%
    18:00 +28°C° 0 mm 1 m/S 757 mmHg 86%
    19:00 +27°C° 0 mm 1 m/S 758 mmHg 87%
    20:00 +27°C° 0 mm 1 m/S 758 mmHg 87%
    21:00 +27°C° 0 mm 1 m/S 759 mmHg 86%
    22:00 +25°C° 0 mm 0 m/S 759 mmHg 86%
    23:00 +27°C° 0 mm 1 m/S 759 mmHg 87%

    23 September, Montag

    Zeit Temperatur Niederschläge Wind Luftdruck Luftfeuchtigkeit
    00:00 +27°C° 0 mm 1 m/S 758 mmHg 87%
    01:00 +27°C° 0 mm 1 m/S 758 mmHg 88%
    02:00 +26°C° 0 mm 1 m/S 758 mmHg 89%
    03:00 +26°C° 0 mm 1 m/S 758 mmHg 89%
    04:00 +26°C° 0 mm 1 m/S 758 mmHg 90%
    05:00 +26°C° 0 mm 1 m/S 758 mmHg 89%
    06:00 +27°C° 0 mm 1 m/S 759 mmHg 88%
    07:00 +27°C° 0 mm 1 m/S 759 mmHg 88%
    08:00 +29°C° 0 mm 2 m/S 759 mmHg 80%
    09:00 +30°C° 0 mm 2 m/S 759 mmHg 72%
    10:00 +32°C° 0 mm 2 m/S 759 mmHg 64%
    11:00 +32°C° 0.8 mm 2 m/S 758 mmHg 63%
    12:00 +34°C° 0.8 mm 2 m/S 758 mmHg 61%
    13:00 +34°C° 0.8 mm 2 m/S 757 mmHg 60%
    14:00 +34°C° 2.1 mm 2 m/S 757 mmHg 64%
    15:00 +32°C° 2.1 mm 2 m/S 757 mmHg 67%
    16:00 +33°C° 2.1 mm 3 m/S 756 mmHg 71%
    17:00 +30°C° 1 mm 3 m/S 757 mmHg 76%
    18:00 +29°C° 1 mm 2 m/S 757 mmHg 82%
    19:00 +28°C° 1 mm 2 m/S 758 mmHg 87%
    20:00 +28°C° 0.3 mm 2 m/S 758 mmHg 88%
    21:00 +28°C° 0.3 mm 2 m/S 759 mmHg 88%
    22:00 +27°C° 0.3 mm 2 m/S 759 mmHg 89%
    23:00 +27°C° 0.1 mm 2 m/S 759 mmHg 89%

    24 September, Dienstag

    Zeit Temperatur Niederschläge Wind Luftdruck Luftfeuchtigkeit
    00:00 +27°C° 0.1 mm 2 m/S 758 mmHg 89%
    01:00 +27°C° 0.1 mm 2 m/S 758 mmHg 89%
    02:00 +27°C° 0 mm 2 m/S 758 mmHg 90%
    03:00 +26°C° 0 mm 2 m/S 758 mmHg 90%
    04:00 +26°C° 0 mm 2 m/S 757 mmHg 90%
    05:00 +27°C° 0.1 mm 2 m/S 758 mmHg 89%
    06:00 +27°C° 0.1 mm 2 m/S 758 mmHg 87%
    07:00 +28°C° 0.1 mm 3 m/S 759 mmHg 86%
    08:00 +29°C° 0.3 mm 3 m/S 759 mmHg 81%
    09:00 +31°C° 0.3 mm 3 m/S 759 mmHg 75%
    10:00 +33°C° 0.3 mm 4 m/S 759 mmHg 69%
    11:00 +34°C° 0.4 mm 3 m/S 758 mmHg 65%
    12:00 +35°C° 0.4 mm 3 m/S 758 mmHg 60%
    13:00 +36°C° 0.4 mm 3 m/S 757 mmHg 56%
    14:00 +35°C° 0 mm 3 m/S 757 mmHg 56%
    15:00 +35°C° 0 mm 3 m/S 756 mmHg 57%
    16:00 +35°C° 0 mm 3 m/S 756 mmHg 57%
    17:00 +33°C° 0.1 mm 3 m/S 756 mmHg 65%
    18:00 +30°C° 0.1 mm 3 m/S 757 mmHg 72%
    19:00 +29°C° 0.1 mm 3 m/S 757 mmHg 79%
    20:00 +28°C° 0 mm 3 m/S 758 mmHg 81%
    21:00 +28°C° 0 mm 2 m/S 758 mmHg 84%
    22:00 +28°C° 0 mm 2 m/S 759 mmHg 86%
    23:00 +27°C° 0 mm 2 m/S 758 mmHg 87%
    Mehr zeigen